Back to catalog

APRIZESAT 4

AliveCommunicationsSSO
NORAD 35684·PAYLOAD·🇺🇸 United States

Launched Jul 29, 2009 from Baikonur Cosmodrome

Loading…

Next Passes (next 24 hours)

TLE

FreshSource: Space-Track

Epoch: Sep 14, 2026, 11:11 UTC

1 35684U 09041D   26257.46614752  .00000514  00000-0  67694-4 0  9993
2 35684  98.1346 334.5374 0043864  33.5344 326.8632 14.83989266924602

Track APRIZESAT 4 in real time with AllMySat

Download on the App Store